STARLINK-30171 (57469 NORAD) Tracking and Keplerian Element Data

This shows tracking and keplerian element data for the satellite.

Feedback or suggestion? Click here.




ElementValue
Catalog57469
NameSTARLINK-30171
Epoch Orbit2676
Epoch Day12.90977672
Epoch Year2024
RAAN293.903
Inclination43.002
Eccentricity0.0001734
Argument of Perigee274.9962
Mean Anonmoly85.0682
Mean Motion15.02552528
Decay Rate0.0001838
L11 57469U 23107N 24012.90977672 .00018380 00000+0 13715-2 0 9998
L22 57469 43.0020 293.9030 0001734 274.9962 85.0682 15.02552528 26767



Live tracking and technical data element details for STARLINK-30171 (NORAD 57469). STARLINK-30171 can be tracked NOW for your location showing map with azimuth and elevation plus other details from your city location.







IsCatalogInMostPopularTable: catalog: 57469, numindb: 7
Update: records affected: 1



GetName: 57469 STARLINK-30171

Hit Count: updated at: Thu, 22 Feb 2024 01:21:58 GMT